Regional Weather Roundup
Issued by NWS Wakefield, VA

Home | Current Version | Previous Version | Graphics & Text | Print | Product List | Glossary On
Versions: 1 2 3 4 5 6 7 8 9 10 11 12 13 14 15 16 17 18 19 20 21 22 23 24 25 26 27 28 29 30 31 32 33 34 35 36 37 38 39 40 41 42 43 44 45 46 47 48 49 50
212
ASUS41 KAKQ 282315
RWRAKQ

REGIONAL WEATHER ROUNDUP
NATIONAL WEATHER SERVICE WAKEFIELD VA
700 PM EDT WED JUN 28 2017

Note: "fair" indicates few or no clouds below 12,000 feet with no
significant weather and/or obstructions to visibility. * = Denotes
station may not report precipitation (e.g., rain,snow,etc.),
thunder or fog.

VAZ042-051-052>054-056-290000-
NORTHERN VIRGINIA

CITY           SKY/WX    TMP DP  RH WIND       PRES   REMARKS
WASH NATIONAL  PTSUNNY   79  53  40 S12       30.13F
DULLES         PTSUNNY   76  50  40 S5        30.13F
FORT BELVOIR   MOSUNNY   79  52  39 SE5       30.13F
QUANTICO       PTSUNNY   79  56  45 S9        30.15S
FREDERICKSBRG* SUNNY     80  53  39 S6        30.14S
STAFFORD*      MOSUNNY   79  50  35 S6        30.18S
WARRENTON      MOSUNNY   79  46  31 SE6       30.13F
CULPEPER*      CLOUDY    78  55  43 S6        30.14S
MANASSAS*      CLOUDY    77  55  46 S7        30.14S
LEESBURG*      CLOUDY    79  54  41 S8        30.14F
WINCHESTER     CLOUDY    73  54  49 SE7       30.13S
FRONT ROYAL*   CLOUDY    75  54  46 S6        30.12F
LURAY*         PTCLDY    77  50  38 SW3       30.13F
$$

VAZ048-049-060>072-079>083-290000-
CENTRAL AND SOUTH CENTRAL VIRGINIA

CITY           SKY/WX    TMP DP  RH WIND       PRES   REMARKS
RICHMOND       PTSUNNY   78  52  40 SE8       30.16S
CHESTERFIELD*  NOT AVBL
PETERSBURG*    SUNNY     78  51  39 CALM      30.17R
HANOVER        SUNNY     77  55  46 E3        30.17S
TAPPAHANNOCK*  SUNNY     78  40  25 CALM      30.17S
QUINTON*       FAIR      77  53  42 SE5       30.16S
CHARLOTTSVILLE CLOUDY    79  54  41 S8        30.14S
GORDONSVILLE*  CLEAR     78  53  40 S3        30.14S
ORANGE*        CLOUDY    77  52  41 SE6       30.14S
LOUISA*        SUNNY     81  55  41 S5        30.15R
BUMPASS*       FAIR      76  52  42 S6        30.15S
FARMVILLE*     SUNNY     79  45  29 S6        30.14S
CREWE*         FAIR      78  44  30 S3        30.17R
FORT PICKETT*  FAIR     N/A N/A N/A S5        30.17R
CHASE CITY*    FAIR      79  54  42 CALM      30.17S
CLARKSVILLE*   FAIR      79  55  44 CALM      30.17S
SOUTH HILL*    SUNNY     78  56  46 CALM      30.23R
LAWRENCEVILLE* FAIR      79  51  37 CALM      30.17R
EMPORIA*       SUNNY     79  50  36 E3        30.18R
$$

VAZ088>098-290000-
SOUTHEAST VIRGINIA

CITY           SKY/WX    TMP DP  RH WIND       PRES   REMARKS
NORFOLK        SUNNY     76  53  44 SE10      30.18R
VIRGINIA BEACH SUNNY     73  51  46 SE9       30.18S
NORFOLK NAVAL  MOSUNNY   77  52  41 SE8       30.19S
WEST POINT*    SUNNY     77  54  44 E8        30.18S
SALUDA*        FAIR      75  55  49 SE6       30.17S
NEWPORT NEWS   SUNNY     75  53  46 E9        30.18R
LANGLEY AFB    SUNNY     75  55  48 SE8       30.18R
FORT EUSTIS    SUNNY     82  56  41 E8        30.15R
WILLIAMSBURG*  SUNNY     79  57  47 CALM      30.18R
HR EXEC AP*    FAIR      75  54  46 SE7       30.15R
FRANKLIN*      SUNNY     79  52  38 CALM      30.17S
US460-WAKEFLD  SUNNY     80  49  33 VRB3      30.16S
$$

VAZ020-022-025-037-045-290000-
WEST CENTRAL AND SOUTHWEST VIRGINIA

CITY           SKY/WX    TMP DP  RH WIND       PRES   REMARKS
STAUNTON*      CLOUDY    75  54  46 S9        30.17S
WAYNESBORO*    CLOUDY    74  55  51 SE5       30.17R
HOT SPRINGS VA CLOUDY    68  30  24 SW7       30.27R HAZE
LYNCHBURG      CLOUDY    77  51  40 S5        30.17S
DANVILLE       SUNNY     78  58  49 CALM      30.16F
SOUTH BOSTON*  FAIR      78  57  48 CALM      30.17R
MARTINSVILLE   SUNNY     78  57  47 CALM      30.19S
ROANOKE        MOSUNNY   77  56  48 SE14      30.17S
BLACKSBURG     SUNNY     76  51  40 E6        30.22S
DUBLIN*        MOSUNNY   80  40  24 E6        30.19S
MARION*        MOSUNNY   75  54  47 SE3       30.22S
HILLSVILLE*    SUNNY     72  50  45 CALM      30.21S
RICHLANDS*     FAIR      75  51  41 S3        30.19F
WISE*          SUNNY     75  50  41 CALM      30.19F
ABINGDON*      SUNNY     81  49  33 NW3       30.16S
$$

MDZ021>025-VAZ099-100-290000-
SOUTHERN MARYLAND AND THE DELMARVA PENINSULA

CITY           SKY/WX    TMP DP  RH WIND       PRES   REMARKS
PATUXENT RIVER PTSUNNY   74  53  48 S9        30.16S
BAY BRIDGE APT SUNNY     77  52  41 S9        30.15S
LEONARDTOWN    SUNNY     75  52  43 S3        30.17F
DOVER          SUNNY     78  53  41 S7        30.13S
GEORGETOWN     SUNNY     76  54  46 S10       30.17R
EASTON         SUNNY     77  48  36 CALM      30.19S
CAMBRIDGE      SUNNY     75  54  46 S5        30.16S
SALISBURY      SUNNY     77  47  34 VRB3      30.16S
OCEAN CITY     SUNNY     71  59  65 S5        30.19S
WALLOPS ISLAND SUNNY     73  57  57 S15       30.19R
ACCOMACK*      SUNNY     77  54  45 S5        30.18R
$$

NCZ012>017-030>032-290000-
NORTH CENTRAL AND EASTERN NORTH CAROLINA

CITY           SKY/WX    TMP DP  RH WIND       PRES   REMARKS
ROANOKE RAPIDS FAIR      79  54  41 CALM      30.17R
RALEIGH        MOSUNNY   82  54  37 CALM      30.17S
ELIZABETH CITY SUNNY     75  58  55 E9        30.19R
AHOSKIE*         N/A     76  56  48 CALM      30.17S
EDENTON*       SUNNY     78  63  59 E9        30.19R
CURRITUCK*     SUNNY     74  58  56 E6        30.20S
KILL DEVIL HLS SUNNY     73  58  59 E7        30.19R
MANTEO         SUNNY     74  59  60 E10       30.20R
CAPE HATTERAS  NOT AVBL
TARBORO*       NOT AVBL
GOLDSBORO      SUNNY     83  51  33 E5        30.15R
WASHINGTON     SUNNY    N/A N/A N/A CALM      30.17R
GREENVILLE     SUNNY     82  52  34 CALM      30.18R
NEW BERN       SUNNY     80  60  50 SE9       30.18R
WILMINGTON     SUNNY     81  55  40 SE13      30.16S
$$

VAZ048-290000-
ELSEWHERE

CITY           SKY/WX    TMP DP  RH WIND       PRES   REMARKS
HARRISBURG PA  CLOUDY    78  50  37 SW7       30.11S
BALTIMORE      CLOUDY    76  53  44 SE8       30.13S
ANNAPOLIS      CLOUDY    72  57  59 S10       30.14F
ANDREWS AFB    MOSUNNY   78  50  38 CALM      30.13S
PHILADELPHIA   PTSUNNY   79  47  32 SW13      30.12S
HENDERSON NC   SUNNY     75  50  40 S3        30.18R
GREENSBORO     PTSUNNY   79  57  46 S9        30.16S
ROCKY MOUNT    SUNNY     82  54  37 E5        30.17R
$$

VAZ100-290000-
MARINE

STATION/POSITION TIME  TEMP    WIND        PRES    WAVE   SWELL
                       AIR SEA DIR/SP/G            HT/PER HT/PER
                 (UTC) (F)     (DEG/KT/KT) (MB)    (FT/S) (FT/S)
BRANDYWINE LGT   2248   70     190/ 16/ 17 1021.7R
CAPE MAY NJ      2248   70 72  190/ 10/ 14 1021.4R
LEWES DE         2248   73 72  170/  7/ 10 1021.5R
15NM E FENWICK I 2250   71 69  180/ 10/ 14 1022.5F   1/11
OCEAN-CITY-INLET 2248   70 69  190/  8/  9 1022.5R
WACHAPREAGUE VA  2248   74 82  150/  7/  9 1022.0R
THOMAS POINT MD  2300   75 77  160/ 15/ 16   N/A
GOOSES REEF MD   2250   76     150/ 12/ 14 1021.7F
COVE POINT MD    2248   75     190/ 11/ 13 1021.8F
SOLOMONS ISLAND  2248   76 79  190/  7/  9   N/A
BISHOPS HEAD MD  2248   78 81  210/  2/  4 1021.5F
PINEY POINT MD   2248          160/ 13/ 14   N/A
POTOMAC MD       2250   76     170/ 10/ 14 1020.8S
CAMBRIDGE MD     2248   77 82              1022.1R
LEWISETTA VA     2248   75 80  180/  8/ 10 1021.5R
RAPPAHANNOCK LGT 2248           20/  1/  2 1022.6R
STINGRAY PT      2250   75     160/  8/ 10 1022.0F
YORK RVR RNG VA  2248   74     150/ 10/ 12 1022.1R
YORKTOWN VA      2248   75 79  120/ 10/ 12 1021.4R
JAMESTOWN VA     2250   79     140/  4/  6   N/A
DOMINION TERM VA 2248   77      80/  3/  8 1021.9R
KIPTOPEKE VA     2248      74  160/ 10/ 12   N/A
CHES BAY BRIDGE  2248   75 76  140/  4/ 12 1022.0R
CAPE HENRY VA    2248   73     120/ 10/ 12   N/A
WILLOUBY STN VA  2248   74     100/ 12/ 13 1021.7R
S CRANEY ISL VA  2248   77     120/ 10/ 12 1021.5S
CAPE HENRY BUOY  2230      73                N/A     2/ 5
1ST LANDING BUOY 2250   74                 1022.0S
CAPE CHARLES BUO 2251      71                N/A     2/ 8
64NM E OF VA BCH 2250   71 74   70/  8/  8 1023.3F   2/ 5   2/ 5
DUCK PIER NC     2248   73 75   80/ 12/ 14 1022.0R
44100 DUCK FRF   2205      73                N/A     2/ 5
OREGON INLET NC  2248           60/  9/ 13 1022.4R
HATTERAS NC      2248   77 78  100/  9/ 11 1022.3R
DIAMOND SHLS NC  2250   78 83   30/ 10/ 12 1022.1R   2/ 6   2/ 6
CAPE LOOKOUT NC  2300   79      90/ 13/ 14 1021.5R
$$




USA.gov is the U.S. government's official web portal to all federal, state and local government web resources and services.